Weather History for YBCS - April, 2013

Change the Weather History Date:

Saturday, April 27, 2013

  Actual Average Record
Temperature  
Mean Temperature 78 °F -  
Max Temperature 84 °F 82 °F 86 °F (1998)
Min Temperature 72 °F 68 °F 61 °F (2015)
Cooling Degree Days 13    
Growing Degree Days 28 (Base 50)    
Moisture  
Dew Point 67 °F    
Average Humidity 71    
Maximum Humidity 89    
Minimum Humidity 53    
Precipitation  
Precipitation 0.03 in 0.16 in - ()
Sea Level Pressure  
Sea Level Pressure 29.96 in    
Wind  
Wind Speed 12 mph ()    
Max Wind Speed 22 mph    
Max Gust Speed 30 mph    
Visibility 6.5 miles    
Events Rain    
Averages and records for this station are not official NWS values.
T = Trace of Precipitation, MM = Missing Value Source: Averaged Metar Reports

Daily Weather History Graph

Daily Weather History Graph

Search for Another Location

Airport or City:

Trip Planner

Search our weather history database for the weather conditions in past years. The results will help you decide how hot, cold, wet, or windy it might be!

Date:

Astronomy

Apr. 27, 2013 Rise Set
Actual Time 6:28 AM AEST 6:01 PM AEST
Civil Twilight 6:06 AM AEST 6:23 PM AEST
Nautical Twilight 5:40 AM AEST 6:48 PM AEST
Astronomical Twilight 5:14 AM AEST 7:14 PM AEST
Moon 7:18 PM AEST (4/27) 7:35 AM AEST (4/27)
Length of Visible Light 12h 17m
Length of Day
11h 32m
Full, 98% of the Moon is Illuminated
Apr 27
Full
May 2
Last Quarter
May 10
New
May 18
First Quarter
May 25
Full

Hourly Weather History & Observations

Time (AEST) Temp. Heat Index Dew Point Humidity Pressure Visibility Wind Dir Wind Speed Gust Speed Precip Events Conditions
12:00 AM 74 °F - 69 °F 78% 29.99 in - SSE 11.5 mph - -   Overcast
12:00 AM 73.4 °F - 68.0 °F 83% 29.98 in 6.2 mi SSE 11.5 mph - N/A   Scattered Clouds
12:30 AM 75.2 °F - 68.0 °F 78% 29.98 in 6.2 mi South 12.7 mph - N/A   Scattered Clouds
1:00 AM 74 °F - 67 °F 73% 29.99 in - South 12.7 mph - -  
1:00 AM 75.2 °F - 68.0 °F 78% 29.98 in 6.2 mi South 12.7 mph - N/A   Partly Cloudy
1:30 AM 75.2 °F - 66.2 °F 73% 29.98 in 6.2 mi South 11.5 mph - N/A   Partly Cloudy
2:00 AM 73.4 °F - 68.0 °F 83% 29.95 in 6.2 mi SSE 10.4 mph - N/A   Partly Cloudy
2:30 AM 75.2 °F - 66.2 °F 73% 29.95 in 6.2 mi South 10.4 mph - N/A Rain Light Rain Showers
3:00 AM 74 °F - 66 °F 71% 29.96 in - SSE 10.4 mph - -  
3:00 AM 75.2 °F - 66.2 °F 73% 29.95 in 6.2 mi SSE 10.4 mph - N/A   Partly Cloudy
3:30 AM 75.2 °F - 66.2 °F 73% 29.92 in 6.2 mi South 13.8 mph - N/A   Partly Cloudy
4:00 AM 75 °F - 66 °F 66% 29.95 in - South 13.8 mph - -  
4:00 AM 75.2 °F - 66.2 °F 73% 29.95 in 6.2 mi South 13.8 mph - N/A   Partly Cloudy
4:30 AM 73.4 °F - 66.2 °F 78% 29.95 in 6.2 mi South 15.0 mph - N/A   Partly Cloudy
5:00 AM 73.4 °F - 66.2 °F 78% 29.95 in 6.2 mi SSE 15.0 mph - N/A   Partly Cloudy
5:30 AM 73.4 °F - 66.2 °F 78% 29.95 in 6.2 mi SSE 12.7 mph - N/A   Partly Cloudy
6:00 AM 74 °F - 65 °F 67% 29.96 in 19 mi SSE 12.7 mph - -   Partly Cloudy
6:00 AM 73.4 °F - 66.2 °F 78% 29.95 in 6.2 mi SSE 12.7 mph - N/A   Mostly Cloudy
6:30 AM 73.4 °F - 66.2 °F 78% 29.95 in 6.2 mi South 11.5 mph - N/A   Mostly Cloudy
7:00 AM 74 °F - 65 °F 67% 29.98 in - South 11.5 mph - -  
7:00 AM 75.2 °F - 64.4 °F 69% 29.98 in 6.2 mi South 11.5 mph - N/A   Scattered Clouds
7:30 AM 75.2 °F - 66.2 °F 73% 29.98 in 6.2 mi South 12.7 mph - N/A   Scattered Clouds
8:00 AM 77.0 °F - 66.2 °F 69% 29.98 in 6.2 mi SSE 12.7 mph - N/A   Mostly Cloudy
8:30 AM 77.0 °F - 66.2 °F 69% 29.98 in 6.2 mi South 13.8 mph - N/A   Scattered Clouds
9:00 AM 77 °F - 67 °F 65% 30.01 in 9 mi South 12.7 mph - -   Partly Cloudy
9:00 AM 77.0 °F - 68.0 °F 74% 30.01 in 6.2 mi South 12.7 mph - N/A   Mostly Cloudy
9:30 AM 78.8 °F - 68.0 °F 69% 30.01 in 6.2 mi South 17.3 mph - N/A   Scattered Clouds
9:39 AM 77.0 °F - 68.0 °F 74% 30.01 in 6.2 mi South 18.4 mph 29.9 mph N/A   Scattered Clouds
10:00 AM 75 °F - 68 °F 72% 30.03 in - South 15.0 mph - -  
10:00 AM 75.2 °F - 68.0 °F 78% 30.01 in 6.2 mi South 15.0 mph - N/A   Mostly Cloudy
10:30 AM 77.0 °F - 68.0 °F 74% 30.01 in 6.2 mi South 10.4 mph - N/A   Scattered Clouds
11:00 AM 80.6 °F 83.9 °F 69.8 °F 70% 29.98 in 6.2 mi South 12.7 mph - N/A   Scattered Clouds
11:30 AM 80.6 °F 83.2 °F 68.0 °F 65% 29.98 in 6.2 mi South 13.8 mph - N/A   Mostly Cloudy
12:00 PM 79 °F - 68 °F 61% 29.99 in 4 mi SE 16.1 mph - - Rain Light Rain Showers
12:00 PM 78.8 °F - 68.0 °F 69% 29.98 in 3.7 mi SE 16.1 mph - N/A Rain Light Rain Showers
12:03 PM 77.0 °F - 66.2 °F 69% 29.98 in 3.7 mi ESE 17.3 mph 29.9 mph N/A Rain Light Rain Showers
12:30 PM 75.2 °F - 71.6 °F 89% 29.98 in 5.0 mi ESE 11.5 mph - N/A   Mostly Cloudy
1:00 PM 77 °F - 71 °F 75% 29.96 in - SE 11.5 mph - -  
1:00 PM 77.0 °F - 69.8 °F 78% 29.95 in 6.2 mi SE 11.5 mph - N/A   Mostly Cloudy
1:30 PM 78.8 °F - 69.8 °F 74% 29.92 in 6.2 mi SSE 10.4 mph - N/A   Mostly Cloudy
2:00 PM 82.4 °F 86.3 °F 69.8 °F 66% 29.92 in 6.2 mi SE 15.0 mph - N/A   Mostly Cloudy
2:30 PM 84.2 °F 86.6 °F 66.2 °F 55% 29.89 in 6.2 mi SE 16.1 mph - N/A   Mostly Cloudy
3:00 PM 83 °F - 68 °F 53% 29.91 in 16 mi SE 19.6 mph - -   Partly Cloudy
3:00 PM 84.2 °F 87.3 °F 68.0 °F 58% 29.89 in 6.2 mi SE 19.6 mph - N/A   Mostly Cloudy
3:30 PM 82.4 °F 85.4 °F 68.0 °F 62% 29.89 in 6.2 mi SE 21.9 mph - N/A   Mostly Cloudy
4:00 PM 80.6 °F 82.7 °F 66.2 °F 61% 29.89 in 6.2 mi SE 21.9 mph - N/A   Mostly Cloudy
4:30 PM 80.6 °F 82.7 °F 66.2 °F 61% 29.92 in 6.2 mi SE 20.7 mph - N/A   Scattered Clouds
5:00 PM 80.6 °F 82.7 °F 66.2 °F 61% 29.92 in 6.2 mi SE 18.4 mph - N/A   Scattered Clouds
5:30 PM 78.8 °F - 68.0 °F 69% 29.92 in 6.2 mi SSE 13.8 mph - N/A   Mostly Cloudy
6:00 PM 77.0 °F - 66.2 °F 69% 29.92 in 6.2 mi South 16.1 mph - N/A   Mostly Cloudy
6:26 PM 77.0 °F - 66.2 °F 69% 29.92 in 6.2 mi South 18.4 mph 29.9 mph N/A   Mostly Cloudy
6:30 PM 77.0 °F - 66.2 °F 69% 29.95 in 6.2 mi South 19.6 mph - N/A   Mostly Cloudy
6:32 PM 77.0 °F - 66.2 °F 69% 29.95 in 6.2 mi South 18.4 mph 29.9 mph N/A   Mostly Cloudy
7:00 PM 76 °F - 67 °F 66% 29.96 in - SSE 15.0 mph - -  
7:00 PM 77.0 °F - 66.2 °F 69% 29.95 in 6.2 mi SSE 15.0 mph - N/A   Mostly Cloudy
7:30 PM 75.2 °F - 66.2 °F 73% 29.95 in 6.2 mi SSE 12.7 mph - N/A   Mostly Cloudy
8:00 PM 75.2 °F - 66.2 °F 73% 29.98 in 6.2 mi South 13.8 mph - N/A   Mostly Cloudy
8:30 PM 75.2 °F - 66.2 °F 73% 29.98 in 6.2 mi South 12.7 mph - N/A   Mostly Cloudy
9:00 PM 76 °F - 66 °F 63% 30.00 in - South 11.5 mph - -  
9:00 PM 75.2 °F - 66.2 °F 73% 29.98 in 6.2 mi South 11.5 mph - N/A   Mostly Cloudy
9:30 PM 75.2 °F - 66.2 °F 73% 29.98 in 6.2 mi South 13.8 mph - N/A   Mostly Cloudy
10:00 PM 75 °F - 67 °F 69% 29.99 in - South 12.7 mph - -  
10:00 PM 75.2 °F - 66.2 °F 73% 29.98 in 6.2 mi South 12.7 mph - N/A   Mostly Cloudy
10:30 PM 75.2 °F - 68.0 °F 78% 29.98 in 6.2 mi South 11.5 mph - N/A   Partly Cloudy
11:00 PM 75.2 °F - 66.2 °F 73% 29.98 in 6.2 mi South 12.7 mph - N/A   Partly Cloudy
11:30 PM 75.2 °F - 66.2 °F 73% 29.98 in 6.2 mi South 12.7 mph - N/A   Partly Cloudy